GW1728 Weather Reports


Display with metric or nautical units.
time (UTC)temp
F
wind
direction
speed
MPH
gust
MPH
rain 1hr
in
rain 24hr
in
rain mn
in
humidity
%
barometer
mb
20260901032125 60 134 0.0 0.0 0.00 0.00 0.00 58 1015.0
20260901031621 60 139 0.0 0.0 0.00 0.00 0.00 60 1015.2
20260901031117 61 139 0.0 0.0 0.00 0.00 0.00 61 1014.9
20260901030616 61 139 0.0 0.0 0.00 0.00 0.00 60 1014.8
20260901030111 62 139 0.0 0.0 0.00 0.00 0.00 60 1015.0
20260901025606 62 140 0.0 0.0 0.00 0.00 0.00 60 1014.8
20260901025100 63 140 0.0 0.0 0.00 0.00 0.00 61 1014.6
20260901024555 63 139 0.0 0.0 0.00 0.00 0.00 62 1014.9
20260901024054 64 108 0.0 0.0 0.00 0.00 0.00 60 1014.9
20260901023553 64 64 1.0 1.0 0.00 0.00 0.00 59 1014.6
20260901023048 65 69 2.0 2.0 0.00 0.00 0.00 61 1014.9
20260901022543 65 79 1.0 1.0 0.00 0.00 0.00 61 1014.5
20260901022038 65 63 2.0 2.0 0.00 0.00 0.00 60 1014.6
20260901021534 66 50 2.0 2.0 0.00 0.00 0.00 58 1014.6
20260901021029 66 46 2.0 2.0 0.00 0.00 0.00 55 1014.8
20260901020525 67 49 2.0 2.0 0.00 0.00 0.00 52 1014.6
20260901020020 67 40 3.0 3.0 0.00 0.00 0.00 49 1014.6
20260901015515 68 48 3.0 3.0 0.00 0.00 0.00 47 1014.5
20260901015015 68 29 3.0 3.0 0.00 0.00 0.00 48 1014.6
20260901014510 69 39 2.0 2.0 0.00 0.00 0.00 47 1014.6
20260901014006 70 39 1.0 2.0 0.00 0.00 0.00 44 1014.9
20260901013502 71 55 2.0 2.0 0.00 0.00 0.00 41 1014.8
20260901012957 71 61 2.0 2.0 0.00 0.00 0.00 40 1014.9
20260901012457 72 49 2.0 2.0 0.00 0.00 0.00 39 1014.8
20260901011952 73 71 2.0 2.0 0.00 0.00 0.00 38 1014.8
20260901011448 73 60 2.0 2.0 0.00 0.00 0.00 38 1014.9
20260901010946 74 51 2.0 2.0 0.00 0.00 0.00 37 1015.0
20260901010441 74 61 5.0 6.0 0.00 0.00 0.00 36 1014.9
20260901005941 75 90 4.0 6.0 0.00 0.00 0.00 36 1015.0
20260901005436 75 83 4.0 5.0 0.00 0.00 0.00 34 1015.1
20260901004930 75 81 4.0 5.0 0.00 0.00 0.00 33 1015.1
20260901004429 75 63 5.0 5.0 0.00 0.00 0.00 34 1015.1
20260901003924 75 83 5.0 6.0 0.00 0.00 0.00 33 1015.0
20260901003415 76 94 2.0 3.0 0.00 0.00 0.00 33 1015.1
20260901002913 76 47 2.0 3.0 0.00 0.00 0.00 33 1015.1
20260901002412 76 101 2.0 3.0 0.00 0.00 0.00 33 1015.0
20260901001907 76 105 5.0 6.0 0.00 0.00 0.00 31 1015.1
20260901001403 76 49 1.0 1.0 0.00 0.00 0.00 33 1015.2
20260901000858 75 41 1.0 1.0 0.00 0.00 0.00 34 1015.3
20260901000353 77 222 7.0 8.0 0.00 0.00 0.00 34 1015.2
20260831235851 77 130 0.0 0.0 0.00 0.00 0.00 31 1015.2
20260831235348 77 17 3.0 6.0 0.00 0.00 0.00 32 1015.2
20260831234848 79 280 0.0 0.0 0.00 0.00 0.00 29 1015.1
20260831234343 77 258 0.0 0.0 0.00 0.00 0.00 31 1015.3
20260831233838 77 226 2.0 2.0 0.00 0.00 0.00 30 1015.4
20260831233333 78 244 0.0 0.0 0.00 0.00 0.00 30 1015.2
20260831232829 78 233 0.0 0.0 0.00 0.00 0.00 28 1015.4
20260831232325 76 271 1.0 1.0 0.00 0.00 0.00 33 1015.5
20260831231820 77 289 1.0 2.0 0.00 0.00 0.00 30 1015.4
20260831231317 76 235 3.0 3.0 0.00 0.00 0.00 33 1015.6
20260831230812 76 220 3.0 3.0 0.00 0.00 0.00 33 1015.3
20260831230307 77 213 0.0 0.0 0.00 0.00 0.00 30 1015.6
20260831225806 75 188 0.0 1.0 0.00 0.00 0.00 32 1015.7
20260831225301 75 233 1.0 1.0 0.00 0.00 0.00 31 1015.6
20260831224756 76 213 3.0 3.0 0.00 0.00 0.00 33 1015.7
20260831224251 76 241 0.0 0.0 0.00 0.00 0.00 32 1015.6
20260831223746 76 252 0.0 0.0 0.00 0.00 0.00 33 1015.6
20260831223243 76 276 1.0 1.0 0.00 0.00 0.00 33 1015.7
20260831222738 76 272 0.0 0.0 0.00 0.00 0.00 37 1015.9
20260831222234 75 237 2.0 3.0 0.00 0.00 0.00 32 1015.9
20260831221730 75 206 2.0 2.0 0.00 0.00 0.00 33 1015.7
20260831221225 75 200 3.0 3.0 0.00 0.00 0.00 33 1015.9
20260831220719 74 15 3.0 3.0 0.00 0.00 0.00 33 1016.0
20260831220215 76 13 7.0 9.0 0.00 0.00 0.00 33 1016.0
20260831215710 74 3 5.0 6.0 0.00 0.00 0.00 33 1015.9
20260831215206 76 352 4.0 5.0 0.00 0.00 0.00 34 1016.0
20260831214703 75 270 1.0 1.0 0.00 0.00 0.00 36 1015.9
20260831214159 75 288 3.0 3.0 0.00 0.00 0.00 37 1016.1
20260831213655 75 230 0.0 0.0 0.00 0.00 0.00 33 1016.1
20260831213150 75 228 0.0 0.0 0.00 0.00 0.00 32 1016.3
20260831212646 75 243 2.0 3.0 0.00 0.00 0.00 32 1016.2
20260831212143 74 190 5.0 6.0 0.00 0.00 0.00 35 1016.0
20260831211641 74 230 3.0 3.0 0.00 0.00 0.00 36 1016.2
20260831211135 75 253 3.0 3.0 0.00 0.00 0.00 34 1016.1
20260831210630 75 207 1.0 1.0 0.00 0.00 0.00 37 1016.2
20260831210127 76 308 1.0 1.0 0.00 0.00 0.00 34 1016.2
20260831205625 75 248 1.0 1.0 0.00 0.00 0.00 35 1016.2
20260831205122 74 229 7.0 8.0 0.00 0.00 0.00 37 1016.3
20260831204621 74 317 1.0 1.0 0.00 0.00 0.00 35 1016.4
20260831204120 75 275 1.0 2.0 0.00 0.00 0.00 36 1016.4
20260831203615 75 312 1.0 1.0 0.00 0.00 0.00 38 1016.4
20260831203114 75 232 1.0 2.0 0.00 0.00 0.00 37 1016.4
20260831202614 75 340 0.0 0.0 0.00 0.00 0.00 39 1016.7
20260831202113 74 328 0.0 0.0 0.00 0.00 0.00 38 1016.7
20260831201612 73 289 0.0 0.0 0.00 0.00 0.00 40 1016.5
20260831201107 72 358 20.0 24.0 0.00 0.00 0.00 37 1016.4
20260831200603 72 192 2.0 2.0 0.00 0.00 0.00 38 1016.5
20260831200057 72 167 4.0 6.0 0.00 0.00 0.00 39 1016.7
20260831195553 73 214 3.0 5.0 0.00 0.00 0.00 37 1016.9
20260831195048 73 252 1.0 1.0 0.00 0.00 0.00 39 1016.9
20260831194543 74 235 4.0 7.0 0.00 0.00 0.00 41 1016.8
20260831194038 72 233 3.0 3.0 0.00 0.00 0.00 40 1016.9
20260831193533 72 255 5.0 6.0 0.00 0.00 0.00 38 1016.9
20260831193028 72 240 4.0 6.0 0.00 0.00 0.00 41 1017.1
20260831192523 72 235 3.0 3.0 0.00 0.00 0.00 40 1017.2
20260831192019 71 235 3.0 3.0 0.00 0.00 0.00 39 1017.1
20260831191515 71 250 3.0 5.0 0.00 0.00 0.00 40 1017.1
20260831191010 71 211 4.0 5.0 0.00 0.00 0.00 39 1017.4
20260831190500 71 268 2.0 2.0 0.00 0.00 0.00 40 1017.4
20260831185958 71 263 4.0 6.0 0.00 0.00 0.00 42 1017.3
20260831185454 71 234 3.0 5.0 0.00 0.00 0.00 42 1017.4
20260831184954 71 267 3.0 3.0 0.00 0.00 0.00 45 1017.4
20260831184449 71 213 3.0 3.0 0.00 0.00 0.00 41 1017.5
20260831183944 71 21 3.0 3.0 0.00 0.00 0.00 42 1017.4
20260831183443 72 357 2.0 3.0 0.00 0.00 0.00 42 1017.7
20260831182937 71 263 3.0 5.0 0.00 0.00 0.00 43 1017.7
20260831182433 70 27 2.0 2.0 0.00 0.00 0.00 42 1017.7
20260831181928 72 267 1.0 2.0 0.00 0.00 0.00 42 1017.9
20260831181423 72 320 2.0 2.0 0.00 0.00 0.00 43 1017.8
20260831180918 71 215 2.0 2.0 0.00 0.00 0.00 47 1018.0
20260831180412 70 221 2.0 2.0 0.00 0.00 0.00 42 1017.9
20260831175911 71 240 3.0 6.0 0.00 0.00 0.00 43 1017.9
20260831175408 71 243 5.0 7.0 0.00 0.00 0.00 43 1017.9
20260831174904 70 310 1.0 2.0 0.00 0.00 0.00 45 1018.0
20260831174359 71 267 1.0 2.0 0.00 0.00 0.00 44 1018.0
20260831173857 71 264 3.0 5.0 0.00 0.00 0.00 45 1018.0
20260831173352 71 237 0.0 1.0 0.00 0.00 0.00 46 1018.2
20260831172847 70 199 1.0 2.0 0.00 0.00 0.00 45 1018.0
20260831172343 69 337 2.0 2.0 0.00 0.00 0.00 44 1018.0
20260831171843 70 355 4.0 5.0 0.00 0.00 0.00 43 1018.2
20260831171339 70 309 1.0 1.0 0.00 0.00 0.00 45 1018.0
20260831170836 69 314 1.0 2.0 0.00 0.00 0.00 44 1017.9
20260831170331 69 274 3.0 3.0 0.00 0.00 0.00 45 1017.9
20260831165827 69 3 3.0 3.0 0.00 0.00 0.00 44 1017.9
20260831165324 69 239 1.0 2.0 0.00 0.00 0.00 46 1018.0
20260831164820 69 253 2.0 3.0 0.00 0.00 0.00 45 1017.9
20260831164316 69 258 0.0 0.0 0.00 0.00 0.00 47 1017.9
20260831163811 68 26 1.0 2.0 0.00 0.00 0.00 46 1017.9
20260831163307 68 264 1.0 2.0 0.00 0.00 0.00 46 1017.8
20260831162805 68 293 4.0 5.0 0.00 0.00 0.00 45 1017.9
20260831162300 68 270 1.0 1.0 0.00 0.00 0.00 47 1017.8
20260831161759 68 308 3.0 5.0 0.00 0.00 0.00 47 1017.8
20260831161255 67 266 1.0 1.0 0.00 0.00 0.00 49 1017.8
20260831160756 66 261 4.0 6.0 0.00 0.00 0.00 48 1017.8
20260831160250 65 205 1.0 1.0 0.00 0.00 0.00 50 1017.8
20260831155745 66 187 1.0 1.0 0.00 0.00 0.00 54 1017.9
20260831155240 64 286 2.0 2.0 0.00 0.00 0.00 50 1017.9
20260831154736 64 268 1.0 2.0 0.00 0.00 0.00 51 1017.9
20260831154232 64 295 3.0 5.0 0.00 0.00 0.00 52 1017.7
20260831153730 63 59 1.0 2.0 0.00 0.00 0.00 54 1017.8
20260831153226 62 307 2.0 2.0 0.00 0.00 0.00 55 1017.8
20260831152722 62 237 0.0 1.0 0.00 0.00 0.00 59 1017.9
20260831152218 61 220 1.0 1.0 0.00 0.00 0.00 58 1017.8
20260831151718 59 227 3.0 5.0 0.00 0.00 0.00 62 1017.9
20260831151212 57 224 1.0 1.0 0.00 0.00 0.00 66 1018.0
20260831150707 57 216 4.0 5.0 0.00 0.00 0.00 66 1017.7
20260831150203 57 243 2.0 2.0 0.00 0.00 0.00 66 1017.8
20260831145702 57 233 2.0 3.0 0.00 0.00 0.00 65 1017.8
20260831145158 56 215 1.0 2.0 0.00 0.00 0.00 67 1017.7
20260831144654 54 356 2.0 3.0 0.00 0.00 0.00 69 1017.8
20260831144149 53 249 1.0 2.0 0.00 0.00 0.00 71 1017.7
20260831143649 52 213 2.0 2.0 0.00 0.00 0.00 72 1017.7
20260831143144 53 225 4.0 5.0 0.00 0.00 0.00 73 1017.7
20260831142641 56 209 3.0 3.0 0.00 0.00 0.00 68 1017.8
20260831142136 56 286 2.0 2.0 0.00 0.00 0.00 65 1017.6
20260831141634 55 228 0.0 1.0 0.00 0.00 0.00 68 1017.5
20260831141130 54 230 0.0 0.0 0.00 0.00 0.00 69 1017.5
20260831140629 53 221 0.0 1.0 0.00 0.00 0.00 72 1017.3
20260831140124 51 206 0.0 1.0 0.00 0.00 0.00 75 1017.3
20260831135621 50 220 0.0 0.0 0.00 0.00 0.00 80 1017.2
20260831135118 47 225 0.0 0.0 0.00 0.00 0.00 84 1017.3
20260831134613 46 232 0.0 0.0 0.00 0.00 0.00 85 1017.3
20260831134108 45 232 2.0 2.0 0.00 0.00 0.00 85 1017.2
20260831133607 45 225 1.0 1.0 0.00 0.00 0.00 86 1017.1
20260831133102 44 264 0.0 0.0 0.00 0.00 0.00 87 1017.1
20260831132559 44 215 1.0 1.0 0.00 0.00 0.00 87 1017.1
20260831132057 43 202 0.0 0.0 0.00 0.00 0.00 87 1016.8
20260831131552 43 182 1.0 1.0 0.00 0.00 0.00 88 1016.8
20260831131049 43 185 0.0 0.0 0.00 0.00 0.00 88 1016.6
20260831130544 43 330 0.0 0.0 0.00 0.00 0.00 88 1016.7
20260831130039 43 337 1.0 1.0 0.00 0.00 0.00 88 1016.5
20260831125538 42 154 0.0 1.0 0.00 0.00 0.00 87 1016.5
20260831125034 42 202 0.0 0.0 0.00 0.00 0.00 88 1016.5
20260831124530 42 187 3.0 3.0 0.00 0.00 0.00 89 1016.5
20260831124026 42 152 0.0 0.0 0.00 0.00 0.00 88 1016.5
20260831123525 42 162 0.0 0.0 0.00 0.00 0.00 87 1016.3
20260831123020 43 146 0.0 0.0 0.00 0.00 0.00 88 1016.4
20260831122519 43 183 0.0 0.0 0.00 0.00 0.00 87 1016.1
20260831122015 43 186 0.0 0.0 0.00 0.00 0.00 87 1016.4
20260831121510 43 175 1.0 1.0 0.00 0.00 0.00 86 1016.1
20260831121006 43 184 0.0 0.0 0.00 0.00 0.00 85 1016.1
20260831120505 45 176 0.0 0.0 0.00 0.00 0.00 82 1016.1
20260831120000 47 352 0.0 0.0 0.00 0.00 0.00 78 1016.1
20260831115456 47 355 0.0 0.0 0.00 0.00 0.00 78 1015.9
20260831114951 47 357 1.0 2.0 0.00 0.00 0.00 77 1015.9
20260831114449 48 3 3.0 3.0 0.00 0.00 0.00 77 1015.9
20260831113945 48 163 1.0 1.0 0.00 0.00 0.00 77 1015.9
20260831113444 48 151 0.0 0.0 0.00 0.00 0.00 76 1015.7
20260831112940 48 94 0.0 1.0 0.00 0.00 0.00 76 1015.7
20260831112440 48 200 0.0 0.0 0.00 0.00 0.00 77 1015.5
20260831111935 48 234 0.0 1.0 0.00 0.00 0.00 76 1015.5
20260831111431 48 284 0.0 0.0 0.00 0.00 0.00 76 1015.6
20260831110926 48 272 0.0 1.0 0.00 0.00 0.00 76 1015.5
20260831110421 48 310 3.0 3.0 0.00 0.00 0.00 76 1015.5
20260831105920 48 248 2.0 2.0 0.00 0.00 0.00 76 1015.4
20260831105416 48 249 0.0 0.0 0.00 0.00 0.00 75 1015.5
20260831104911 49 233 0.0 0.0 0.00 0.00 0.00 74 1015.5
20260831104407 49 248 0.0 0.0 0.00 0.00 0.00 73 1015.3
20260831103902 49 170 0.0 0.0 0.00 0.00 0.00 73 1015.4
20260831103357 49 298 1.0 1.0 0.00 0.00 0.00 73 1015.4
20260831102853 49 295 0.0 0.0 0.00 0.00 0.00 74 1015.1
20260831102353 49 317 0.0 1.0 0.00 0.00 0.00 72 1015.2
20260831101848 49 328 2.0 3.0 0.00 0.00 0.00 72 1015.2
20260831101348 48 299 2.0 2.0 0.00 0.00 0.00 75 1015.1
20260831100845 46 237 0.0 1.0 0.00 0.00 0.00 79 1015.1
20260831100340 45 295 0.0 1.0 0.00 0.00 0.00 81 1015.1
20260831095839 44 199 0.0 0.0 0.00 0.00 0.00 82 1015.2
20260831095334 45 192 1.0 1.0 0.00 0.00 0.00 81 1015.4
20260831094829 45 183 0.0 1.0 0.00 0.00 0.00 81 1015.6
20260831094324 45 188 0.0 0.0 0.00 0.00 0.00 80 1015.5
20260831093820 48 179 2.0 2.0 0.00 0.00 0.00 75 1015.6
20260831093315 47 226 0.0 0.0 0.00 0.00 0.00 77 1015.5
20260831092812 47 303 1.0 2.0 0.00 0.00 0.00 78 1015.5
20260831092307 47 254 0.0 0.0 0.00 0.00 0.00 78 1015.2
20260831091802 47 238 1.0 1.0 0.00 0.00 0.00 77 1015.3
20260831091257 47 221 4.0 5.0 0.00 0.00 0.00 77 1015.2
20260831090753 46 206 2.0 2.0 0.00 0.00 0.00 78 1015.2
20260831090249 46 244 0.0 0.0 0.00 0.00 0.00 78 1014.9
20260831085745 47 248 0.0 1.0 0.00 0.00 0.00 77 1014.9
20260831085239 47 248 1.0 1.0 0.00 0.00 0.00 76 1014.9
20260831084734 48 221 1.0 1.0 0.00 0.00 0.00 75 1015.0
20260831084231 48 223 2.0 3.0 0.00 0.00 0.00 75 1015.1
20260831083726 48 252 0.0 1.0 0.00 0.00 0.00 75 1014.9
20260831083222 48 241 1.0 2.0 0.00 0.00 0.00 75 1014.8
20260831082720 48 262 2.0 3.0 0.00 0.00 0.00 74 1014.6
20260831082216 48 215 3.0 3.0 0.00 0.00 0.00 73 1014.6
20260831081711 49 249 4.0 5.0 0.00 0.00 0.00 71 1014.5
20260831081207 49 183 1.0 1.0 0.00 0.00 0.00 71 1014.5
20260831080702 49 102 0.0 0.0 0.00 0.00 0.00 71 1014.5
20260831080156 50 80 0.0 0.0 0.00 0.00 0.00 71 1014.4
20260831075652 50 90 1.0 1.0 0.00 0.00 0.00 69 1014.4
20260831075148 50 224 3.0 3.0 0.00 0.00 0.00 69 1014.3
20260831074646 50 284 1.0 1.0 0.00 0.00 0.00 70 1014.4
20260831074141 49 277 1.0 2.0 0.00 0.00 0.00 71 1014.2
20260831073636 48 249 2.0 2.0 0.00 0.00 0.00 74 1014.4
20260831073136 48 250 1.0 2.0 0.00 0.00 0.00 75 1014.4
20260831072631 48 232 3.0 3.0 0.00 0.00 0.00 75 1014.5
20260831072128 50 221 3.0 3.0 0.00 0.00 0.00 72 1014.6
20260831071626 51 219 3.0 3.0 0.00 0.00 0.00 67 1014.4
20260831071122 51 233 3.0 3.0 0.00 0.00 0.00 66 1014.4
20260831070621 51 233 1.0 2.0 0.00 0.00 0.00 68 1014.5
20260831070116 51 235 0.0 1.0 0.00 0.00 0.00 68 1014.5
20260831065614 51 241 0.0 0.0 0.00 0.00 0.00 68 1014.5
20260831065108 51 231 0.0 0.0 0.00 0.00 0.00 67 1014.5
20260831064603 52 248 0.0 1.0 0.00 0.00 0.00 66 1014.6
20260831064059 52 227 2.0 3.0 0.00 0.00 0.00 66 1014.6
20260831063554 52 280 2.0 3.0 0.00 0.00 0.00 66 1014.5
20260831063054 52 241 1.0 1.0 0.00 0.00 0.00 65 1014.3
20260831062549 52 315 2.0 3.0 0.00 0.00 0.00 65 1014.8
20260831062049 52 257 2.0 2.0 0.00 0.00 0.00 66 1014.8
20260831061547 52 245 4.0 5.0 0.00 0.00 0.00 66 1014.8
20260831061043 52 228 1.0 2.0 0.00 0.00 0.00 66 1014.6
20260831060538 52 243 0.0 1.0 0.00 0.00 0.00 66 1014.6
20260831060033 52 271 2.0 3.0 0.00 0.00 0.00 66 1014.5
20260831055527 52 256 1.0 2.0 0.00 0.13 0.13 65 1014.5
20260831055024 52 300 3.0 3.0 0.00 0.13 0.13 64 1014.8
20260831054523 52 265 1.0 2.0 0.00 0.13 0.13 65 1014.5
20260831054022 52 247 3.0 6.0 0.00 0.13 0.13 64 1014.4
20260831053520 53 277 3.0 3.0 0.00 0.13 0.13 63 1014.4
20260831053016 53 298 1.0 2.0 0.00 0.13 0.13 62 1014.2
20260831052514 53 267 4.0 6.0 0.00 0.13 0.13 61 1014.3
20260831052009 54 232 3.0 3.0 0.00 0.13 0.13 61 1014.1
20260831051507 54 235 3.0 3.0 0.00 0.13 0.13 60 1014.3
20260831051007 54 245 3.0 3.0 0.00 0.13 0.13 60 1014.3
20260831050506 55 267 5.0 6.0 0.00 0.13 0.13 59 1014.5
20260831050005 55 214 3.0 3.0 0.00 0.13 0.13 58 1014.5
20260831045459 55 262 5.0 6.0 0.00 0.13 0.13 57 1014.3
20260831044954 55 268 4.0 5.0 0.00 0.13 0.13 57 1014.4
20260831044449 55 275 4.0 7.0 0.00 0.13 0.13 56 1014.4
20260831043944 55 263 4.0 6.0 0.00 0.13 0.13 56 1014.5
20260831043439 55 260 4.0 6.0 0.00 0.13 0.13 56 1014.6
20260831042934 56 247 4.0 6.0 0.00 0.13 0.13 56 1014.6
20260831042433 56 245 3.0 3.0 0.00 0.13 0.13 55 1014.4
20260831041928 57 224 3.0 5.0 0.00 0.13 0.13 54 1014.5
20260831041427 57 244 3.0 3.0 0.00 0.13 0.13 54 1014.4
20260831040922 58 201 4.0 5.0 0.00 0.13 0.13 53 1014.2
20260831040418 58 285 5.0 8.0 0.00 0.13 0.13 51 1014.4
20260831035915 58 288 5.0 7.0 0.00 0.13 0.13 51 1014.5
20260831035414 59 297 5.0 7.0 0.00 0.13 0.13 51 1014.3
20260831034909 59 288 5.0 7.0 0.00 0.13 0.13 51 1014.5
20260831034404 59 188 4.0 6.0 0.00 0.13 0.13 51 1014.3
20260831033859 59 163 2.0 3.0 0.00 0.13 0.13 51 1014.3
20260831033355 59 303 3.0 3.0 0.00 0.13 0.13 51 1014.4
20260831032850 59 234 4.0 6.0 0.00 0.13 0.13 50 1014.1
20260831032344 59 246 6.0 8.0 0.00 0.13 0.13 50 1014.3